TimeCDT,TemperatureF,Dew PointF,Humidity,Sea Level PressureIn,VisibilityMPH,Wind Direction,Wind SpeedMPH,Gust SpeedMPH,PrecipitationIn,Events,Conditions,WindDirDegrees,DateUTC
12:15 AM,73.4,68.0,83,30.12,10.0,SSE,9.2,17.3,N/A,,Overcast,160,2012-10-05 05:15:00
12:35 AM,73.4,69.8,88,30.11,10.0,South,8.1,-,N/A,,Overcast,170,2012-10-05 05:35:00
12:55 AM,73.4,68.0,83,30.11,10.0,SSE,4.6,-,N/A,,Overcast,160,2012-10-05 05:55:00
1:15 AM,73.4,69.8,88,30.11,10.0,South,9.2,-,N/A,,Overcast,170,2012-10-05 06:15:00
1:35 AM,73.4,69.8,88,30.11,10.0,South,5.8,-,N/A,,Overcast,170,2012-10-05 06:35:00
1:55 AM,73.4,69.8,88,30.11,10.0,South,6.9,-,N/A,,Overcast,180,2012-10-05 06:55:00
2:15 AM,73.4,69.8,88,30.11,10.0,South,8.1,-,N/A,,Overcast,170,2012-10-05 07:15:00
2:35 AM,73.4,69.8,88,30.10,10.0,South,8.1,-,N/A,,Overcast,170,2012-10-05 07:35:00
3:15 AM,73.4,68.0,83,30.10,10.0,South,3.5,-,N/A,,Overcast,170,2012-10-05 08:15:00
3:35 AM,73.4,68.0,83,30.10,10.0,SSE,5.8,-,N/A,,Overcast,150,2012-10-05 08:35:00
3:55 AM,73.4,68.0,83,30.09,10.0,SSE,4.6,-,N/A,,Overcast,160,2012-10-05 08:55:00
4:15 AM,73.4,69.8,88,30.09,10.0,South,4.6,-,N/A,,Overcast,170,2012-10-05 09:15:00
4:35 AM,73.4,68.0,83,30.09,10.0,South,4.6,-,N/A,,Overcast,170,2012-10-05 09:35:00
4:55 AM,73.4,68.0,83,30.09,10.0,South,4.6,-,N/A,,Overcast,170,2012-10-05 09:55:00
5:15 AM,73.4,68.0,83,30.09,10.0,South,3.5,-,N/A,,Overcast,170,2012-10-05 10:15:00
5:35 AM,73.4,68.0,83,30.10,10.0,South,4.6,-,N/A,,Overcast,170,2012-10-05 10:35:00
5:55 AM,71.6,68.0,88,30.10,10.0,South,4.6,-,N/A,,Overcast,180,2012-10-05 10:55:00
6:15 AM,71.6,68.0,88,30.10,10.0,South,5.8,-,N/A,,Mostly Cloudy,170,2012-10-05 11:15:00
6:35 AM,71.6,68.0,88,30.10,10.0,South,3.5,-,N/A,,Overcast,170,2012-10-05 11:35:00
6:55 AM,71.6,68.0,88,30.11,10.0,SSE,5.8,-,N/A,,Overcast,160,2012-10-05 11:55:00
7:15 AM,71.6,68.0,88,30.11,10.0,South,6.9,-,N/A,,Overcast,170,2012-10-05 12:15:00
7:35 AM,71.6,68.0,88,30.11,10.0,SSE,3.5,-,N/A,,Overcast,160,2012-10-05 12:35:00
7:55 AM,71.6,68.0,88,30.11,10.0,South,4.6,-,N/A,,Overcast,170,2012-10-05 12:55:00
8:15 AM,71.6,68.0,88,30.11,10.0,South,6.9,-,N/A,,Overcast,170,2012-10-05 13:15:00
8:35 AM,71.6,68.0,88,30.12,10.0,South,5.8,-,N/A,,Overcast,170,2012-10-05 13:35:00
8:55 AM,71.6,68.0,88,30.12,10.0,South,8.1,-,N/A,,Overcast,180,2012-10-05 13:55:00
9:35 AM,73.4,66.2,78,30.12,10.0,South,9.2,23.0,N/A,,Mostly Cloudy,190,2012-10-05 14:35:00
9:55 AM,73.4,64.4,73,30.13,10.0,South,16.1,23.0,N/A,,Mostly Cloudy,190,2012-10-05 14:55:00
10:15 AM,73.4,64.4,73,30.13,10.0,South,10.4,-,N/A,,Scattered Clouds,190,2012-10-05 15:15:00
10:35 AM,77.0,64.4,65,30.13,10.0,South,11.5,17.3,N/A,,Scattered Clouds,190,2012-10-05 15:35:00
10:55 AM,78.8,64.4,61,30.13,10.0,South,8.1,18.4,N/A,,Scattered Clouds,190,2012-10-05 15:55:00
11:15 AM,78.8,64.4,61,30.13,10.0,South,9.2,16.1,N/A,,Mostly Cloudy,190,2012-10-05 16:15:00
11:35 AM,78.8,62.6,57,30.12,10.0,South,12.7,18.4,N/A,,Scattered Clouds,190,2012-10-05 16:35:00
12:15 PM,80.6,62.6,54,30.11,10.0,South,10.4,20.7,N/A,,Clear,190,2012-10-05 17:15:00
12:35 PM,80.6,62.6,54,30.10,10.0,South,10.4,17.3,N/A,,Clear,180,2012-10-05 17:35:00
12:55 PM,82.4,62.6,51,30.10,10.0,SSW,11.5,20.7,N/A,,Clear,210,2012-10-05 17:55:00
1:15 PM,82.4,62.6,51,30.09,10.0,SSW,11.5,16.1,N/A,,Clear,200,2012-10-05 18:15:00
1:35 PM,82.4,62.6,51,30.08,10.0,South,12.7,19.6,N/A,,Clear,180,2012-10-05 18:35:00
1:55 PM,84.2,60.8,45,30.07,10.0,South,11.5,20.7,N/A,,Clear,180,2012-10-05 18:55:00
2:15 PM,84.2,60.8,45,30.06,10.0,SSE,10.4,18.4,N/A,,Clear,150,2012-10-05 19:15:00
2:35 PM,86.0,60.8,43,30.05,10.0,South,8.1,-,N/A,,Clear,180,2012-10-05 19:35:00
2:55 PM,86.0,60.8,43,30.04,10.0,SSW,6.9,18.4,N/A,,Clear,200,2012-10-05 19:55:00
3:15 PM,86.0,60.8,43,30.03,10.0,South,9.2,17.3,N/A,,Clear,180,2012-10-05 20:15:00
3:35 PM,86.0,60.8,43,30.02,10.0,South,4.6,19.6,N/A,,Clear,190,2012-10-05 20:35:00
3:55 PM,86.0,60.8,43,30.02,10.0,SSW,8.1,18.4,N/A,,Clear,210,2012-10-05 20:55:00
4:15 PM,86.0,60.8,43,30.01,10.0,SSW,10.4,-,N/A,,Clear,200,2012-10-05 21:15:00
4:35 PM,86.0,62.6,45,30.00,10.0,South,6.9,-,N/A,,Clear,170,2012-10-05 21:35:00
4:55 PM,86.0,62.6,45,29.99,10.0,SSE,8.1,-,N/A,,Clear,160,2012-10-05 21:55:00
5:15 PM,86.0,62.6,45,29.99,10.0,South,6.9,-,N/A,,Clear,180,2012-10-05 22:15:00
5:35 PM,86.0,60.8,43,29.99,10.0,South,6.9,-,N/A,,Clear,170,2012-10-05 22:35:00
5:55 PM,86.0,60.8,43,29.99,10.0,SSW,6.9,-,N/A,,Clear,200,2012-10-05 22:55:00
6:15 PM,84.2,60.8,45,29.99,10.0,South,8.1,-,N/A,,Clear,180,2012-10-05 23:15:00
6:35 PM,82.4,60.8,48,29.99,10.0,South,8.1,-,N/A,,Clear,170,2012-10-05 23:35:00
6:55 PM,82.4,62.6,51,29.99,10.0,South,4.6,-,N/A,,Clear,170,2012-10-05 23:55:00
7:15 PM,80.6,62.6,54,29.99,10.0,South,5.8,-,N/A,,Clear,180,2012-10-06 00:15:00
7:35 PM,80.6,62.6,54,30.00,10.0,South,4.6,-,N/A,,Clear,170,2012-10-06 00:35:00
7:55 PM,78.8,62.6,57,30.00,10.0,South,4.6,-,N/A,,Clear,170,2012-10-06 00:55:00
8:15 PM,78.8,62.6,57,30.00,10.0,South,4.6,-,N/A,,Clear,170,2012-10-06 01:15:00
8:35 PM,78.8,62.6,57,30.00,10.0,South,3.5,-,N/A,,Clear,170,2012-10-06 01:35:00
8:55 PM,78.8,62.6,57,30.01,10.0,SSE,4.6,-,N/A,,Clear,160,2012-10-06 01:55:00
9:15 PM,78.8,62.6,57,30.01,10.0,SSE,4.6,-,N/A,,Clear,160,2012-10-06 02:15:00
9:35 PM,77.0,62.6,61,30.01,10.0,SSE,4.6,-,N/A,,Clear,150,2012-10-06 02:35:00
9:55 PM,77.0,62.6,61,30.02,10.0,SE,4.6,-,N/A,,Clear,140,2012-10-06 02:55:00
10:15 PM,77.0,62.6,61,30.02,10.0,SSE,3.5,-,N/A,,Clear,150,2012-10-06 03:15:00
10:35 PM,77.0,62.6,61,30.02,10.0,SSE,5.8,-,N/A,,Clear,150,2012-10-06 03:35:00
10:55 PM,77.0,62.6,61,30.02,10.0,SSE,6.9,-,N/A,,Clear,150,2012-10-06 03:55:00
11:35 PM,75.2,64.4,69,30.02,10.0,SSE,6.9,-,N/A,,Clear,150,2012-10-06 04:35:00
11:55 PM,73.4,64.4,73,30.02,10.0,SE,5.8,-,N/A,,Clear,140,2012-10-06 04:55:00